Terminal Aerodrome Forecast
Issued by NWS Columbia, SC

Home | Current Version | Previous Version | Text Only | Print | Product List | Glossary On
Versions: 1 2 3 4 5 6 7 8 9 10 11 12 13 14 15 16 17 18 19 20 21 22 23 24
000
FTUS42 KCAE 231400 AAA
TAFCAE
TAF AMD
KCAE 231458Z 2315/2412 01006KT P6SM SCT150
     FM240000 06005KT P6SM BKN060
     FM240900 06005KT P6SM OVC020=

USA.gov is the U.S. government's official web portal to all federal, state and local government web resources and services.